Location: Unspecified
(0.0000°N, 0.0000°E)
Time: 14:23:20
(UTC+00:00)

Vanguard 3 - Visible Passes

Search period start: 30 May 2015 00:00
Search period end: 09 June 2015 00:00
Orbit: 509 x 3270 km, 33.3° (Epoch: 29 May)

Date Brightness Start Highest point End Pass type
(mag) Time Alt. Az. Time Alt. Az. Time Alt. Az.
30 May 10.8 00:38:12 32° E 00:38:12 32° E 00:47:09 10° ENE visible
30 May 9.9 02:42:49 63° WNW 02:45:02 66° NW 03:04:18 10° NE visible
30 May 10.9 04:47:50 10° W 05:04:09 29° NNW 05:17:30 10° NNE visible
31 May 10.1 01:33:38 62° NE 01:33:38 62° NE 01:49:00 10° NE visible
31 May 10.5 03:38:15 30° WNW 03:47:06 42° NNW 04:03:55 10° NNE visible
01 Jun 10.8 00:24:22 30° ENE 00:24:22 30° ENE 00:32:27 10° ENE visible
01 Jun 10.0 02:28:59 58° NW 02:30:12 58° NNW 02:49:27 10° NE visible
01 Jun 11.0 04:34:25 10° WNW 04:49:56 26° NNW 05:03:05 10° NNE visible
02 Jun 10.2 01:19:41 55° NE 01:19:41 55° NE 01:34:03 10° NE visible
02 Jun 10.6 03:24:17 28° WNW 03:32:35 37° NNW 03:49:09 10° NNE visible
03 Jun 10.9 00:10:18 28° ENE 00:10:18 28° ENE 00:17:34 10° ENE visible
03 Jun 10.1 02:14:54 51° NW 02:15:31 51° NNW 02:34:28 10° NE visible
03 Jun 11.2 04:21:10 10° WNW 04:35:50 24° NNW 04:48:40 10° NNE visible
04 Jun 10.3 01:05:29 49° NNE 01:05:29 49° NNE 01:18:57 10° NE visible
04 Jun 10.7 03:10:05 25° WNW 03:18:12 33° NNW 03:34:19 10° NNE visible
04 Jun 11.4 05:28:59 10° NW 05:39:51 16° N 05:48:48 10° NNE visible
04 Jun 10.9 23:56:00 26° ENE 23:56:00 26° ENE 00:02:32 10° NE visible
05 Jun 10.3 02:00:36 45° NNW 02:00:58 45° NNW 02:19:21 10° NE visible
05 Jun 11.2 04:08:05 10° WNW 04:21:51 21° NNW 04:34:17 10° NNE visible
06 Jun 10.4 00:51:04 44° NNE 00:51:04 44° NNE 01:03:42 10° NE visible
06 Jun 10.8 02:55:40 22° NW 03:03:58 29° NNW 03:19:25 10° NNE visible
06 Jun 11.5 05:15:25 10° NW 05:26:12 16° N 05:35:28 10° NNE visible
06 Jun 10.9 23:41:30 24° NE 23:41:30 24° NE 23:47:21 10° NE visible
07 Jun 10.4 01:46:05 39° NNW 01:46:37 39° NNW 02:04:07 10° NE visible
07 Jun 11.3 03:55:05 10° NW 04:07:59 20° NNW 04:19:59 10° NNE visible
08 Jun 10.5 00:36:27 39° NNE 00:36:27 39° NNE 00:48:20 10° NE visible
08 Jun 10.9 02:41:02 18° NW 02:49:53 25° NNW 03:04:28 10° NNE visible
08 Jun 11.5 05:01:35 10° NW 05:12:35 17° N 05:22:21 10° NNE visible
08 Jun 10.9 23:26:47 23° NE 23:26:47 23° NE 23:32:02 10° NE visible
